Weather Roundup
Issued by NWS

Home | Current Version | Previous Version | Graphics & Text | Print | Product List | Glossary Off
Versions: 1 2 3 4 5 6 7 8 9 10 11 12 13 14 15 16 17 18 19 20 21 22 23 24 25 26 27 28 29 30 31 32 33 34 35 36 37 38 39 40 41 42 43 44 45 46 47 48 49 50

851
NZUS93 KARX 252159
HRRWXR

CURRENT HOURLY OBSERVATIONS ACROSS
MUCH OF THE UPPER MISSISSIPPI VALLEY
NATIONAL WEATHER SERVICE LA CROSSE WI
500 PM CDT MON JUL 25 2016


...SOUTHEAST MINNESOTA...


CITY           SKY/WX    TMP DP  RH WIND       PRES   REMARKS
ROCHESTER      SUNNY     82  65  56 NW9       30.07S
ROCHESTER/MAYO FAIR      82  61  47 NW8G17    30.06S
WINONA         SUNNY     82  59  44 NW8       30.02F
AUSTIN         SUNNY     81  63  54 NW10      30.06F
ALBERT LEA     SUNNY     81  63  54 NW3       30.08S
DODGE CENTER   SUNNY     82  63  51 N10       30.07S
PRESTON        SUNNY     81  60  50 N7        30.06F
OWATONNA       SUNNY     82  63  51 W9        30.07S
FARIBAULT      SUNNY     82  64  54 W7        30.06S
$$

...ELSEWHERE IN MINNESOTA...


CITY           SKY/WX    TMP DP  RH WIND       PRES   REMARKS
MINNEAPOLIS    MOSUNNY   87  62  43 NW10      30.03F
INTNL FALLS    SUNNY     81  59  47 NW10      29.95F
DULUTH         MOSUNNY   83  61  47 NW6       30.00F
RED WING       SUNNY     86  55  35 N8        30.01S
REDWOOD FALLS  MOSUNNY   86  63  45 W8        30.04F
MANKATO        SUNNY     82  61  47 NW7       30.06F
WORTHINGTON    SUNNY     83  64  52 MISG      30.09F
FAIRMONT       SUNNY     84  64  51 W8        30.06F
$$

...SOUTHWEST WISCONSIN...


CITY           SKY/WX    TMP DP  RH WIND       PRES   REMARKS
LA CROSSE      SUNNY     85  62  46 NW12      30.01F
PRAIRIE DU CHI MOSUNNY   82  59  44 N8        30.01F
BOSCOBEL       MOSUNNY   87  64  46 VRB6      30.01F
LONE ROCK      NOT AVBL
PLATTEVILLE    MOSUNNY   82  64  54 NW7       30.03F
FORT MC COY    MOSUNNY   83  62  49 NW9       30.03S
MAUSTON-NEW LI PTCLDY    82  65  54 W8        30.01S
VIROQUA        FAIR      81  62  52 N7        30.05S
WIS DELLS      NOT AVBL
$$

...ELSEWHERE IN WISCONSIN...


CITY           SKY/WX    TMP DP  RH WIND       PRES   REMARKS
MILWAUKEE      PTSUNNY   82  63  52 SE7       29.98S
MADISON        PTSUNNY   85  63  47 NW6       30.00S
GREEN BAY      MOSUNNY   84  64  50 W12G17    29.97R
EAU CLAIRE     NOT AVBL
BLACK RVR FLS  FAIR      85  58  40 NW8       30.02S
MEDFORD        MOSUNNY   79  60  52 NW10G17   30.03S
WAUSAU         MOSUNNY   82  58  43 W17G23    30.00R
WIS RAPIDS     SUNNY     84  57  39 NW9       30.02S
MARSHFIELD     SUNNY     82  59  45 NW12      30.02S
RICE LAKE      MOSUNNY   81  60  48 NW8       30.04S
$$

...NORTHEAST IOWA...


CITY           SKY/WX    TMP DP  RH WIND       PRES   REMARKS
WATERLOO       SUNNY     84  63  49 N13       30.02F
DUBUQUE        SUNNY     82  63  52 N12       30.04S
DECORAH        SUNNY     81  63  54 NW8       30.04S
MASON CITY     SUNNY     83  62  49 N8        30.08F
CHARLES CITY   SUNNY     82  63  51 N8        30.06S
OELWEIN        SUNNY     81  66  61 NW8       30.05S
$$

...ELSEWHERE IN IOWA...


CITY           SKY/WX    TMP DP  RH WIND       PRES   REMARKS
DES MOINES     MOSUNNY   88  62  41 N12       30.03F
IOWA CITY      SUNNY     82  63  52 N9        30.03F
FORT DODGE     SUNNY     84  64  51 CALM      30.08F
MARSHALLTOWN   SUNNY     85  64  49 N13       30.03F
CEDAR RAPIDS   MOSUNNY   83  65  54 NW10      30.02F
$$

...NORTHERN ILLINOIS...


CITY           SKY/WX    TMP DP  RH WIND       PRES   REMARKS
CHICAGO-OHARE  PTSUNNY   87  64  46 E8        29.97S
CHICAGO-MIDWAY PTSUNNY   85  64  49 E10       29.98R
MOLINE         MOSUNNY   86  64  47 N8        30.00S
ROCKFORD       MOSUNNY   87  64  46 NW6       30.01S
PEORIA         CLOUDY    84  70  62 CALM      30.00S
$$

NOTE: "FAIR" INDICATES FEW OR NO CLOUDS BELOW 12,000 FEET WITH NO
SIGNIFICANT WEATHER AND/OR OBSTRUCTIONS TO VISIBILITY. WIND
SPEEDS ARE IN MILES-PER-HOUR.




USA.gov is the U.S. government's official web portal to all federal, state and local government web resources and services.